www.pogodaiklimat.ru
Время
(UTC), дата
18:48 16.10
18:54 16.10
19:03 16.10
19:32 16.10
19:54 16.10
20:13 16.10
20:47 16.10
20:54 16.10
21:37 16.10
21:54 16.10
22:00 16.10
22:10 16.10
22:39 16.10
22:54 16.10
23:19 16.10
23:54 16.10
00:17 16.10
00:50 16.10
00:54 16.10
01:54 16.10
02:54 16.10
03:54 16.10
04:54 17.10
05:54 17.10
06:54 17.10
07:54 17.10
08:54 17.10
09:54 17.10
10:54 17.10
11:54 17.10
12:54 17.10
13:54 17.10
14:54 17.10
15:54 17.10
16:54 17.10
17:54 17.10
18:54 17.10
19:54 17.10
20:54 17.10
21:54 17.10
22:54 17.10
23:54 17.10
00:54 17.10
01:54 17.10
02:54 17.10
03:54 17.10
04:54 18.10
05:54 18.10
Ветер
(напр.,м/с)
Видим. Явления Облачность Т
(С)
Тd
(С)
f
(%)
Тe
(С)
Тes
(С)
Комфортность P
(гПа)
Po
(гПа)
Тmin
(С)
Tmax
(С)
R
(мм)
R24
(мм)
S
(см)
ЮВ 4 6 км дождь 10/8 600 м
[средняя]
+17.0 +14.0 82 +16 +17 1000.0
В 4 6 км сильный дождь, дымка 10/8 600 м
[средняя]
+17.2 +15.0 87 +17 +17 1000.0 999.6
В 7
{10}
3 км сильный дождь, дымка 10/5 600 м
[средняя]
+17.2 +15.6 90 +16 +16 999.3
В 7 2 км сильный дождь, дымка 10/10 660 м +15.6 +13.3 86 +14 +14 998.0
В 6 3 км сильный дождь, дымка 10/10 570 м +15.6 +14.4 93 +14 +14 996.8 996.6
В 5 4 км дождь, дымка 10/10 180 м +16.1 +15.0 93 +15 +15 995.6
В 4 5 км дождь, дымка 10/10 150 м +16.7 +15.6 93 +16 +16 994.2
В 4 5 км слабый дождь, дымка 10/10 150 м +16.7 +15.6 93 +16 +16 994.3 993.9
ЮВ 1 5 км слабый дождь, дымка 10/10 150 м +16.7 +15.6 93 +17 +17 992.9
ЮВ 1 6 км дождь, дымка 10/10 150 м +15.6 +14.4 93 +16 +16 993.4 993.2
СЗ 10
{13}
8 км слабый дождь, дымка 10/10 120 м +15.6 +13.3 86 +13 +13 993.2
СЗ 8
{13}
11 км слабый дождь 10/10 240 м +15.6 +13.3 86 +14 +14 993.2
СЗ 11
{17}
16 км 10/10 360 м +15.6 +13.3 86 +13 +13 993.6
СЗ 13
{18}
16 км 10/10 360 м +14.4 +11.1 81 +11 +11 994.0 993.6 +14.4 +18.3
СЗ 10
{18}
16 км 8/8 510 м +13.9 +9.4 74 +11 +11 994.2
З 12
{16}
16 км 8/8 660 м +13.3 +8.3 72 +10 +10 994.9 994.6
СЗ 11
{17}
16 км 10/10 810 м +13.3 +7.8 69 +10 +10 994.6
З 12
{17}
16 км 10/8 810 м
[средняя]
+13.0 +6.0 62 +9 +9 994.9
З 8
{16}
16 км 10/8 810 м
[средняя]
+13.3 +6.1 62 +10 +10 995.4 995.2
З 10
{14}
16 км 5/0 2550 м
[средняя]
+11.7 +3.3 56 +8 +8 996.4 996.3
З 9
{13}
16 км 8/8 1230 м
[средняя]
+11.7 +3.3 56 +8 +8 996.7 996.6
З 8
{13}
16 км 10/8 1260 м
[средняя]
+11.7 +3.3 56 +8 +8 997.0 996.6
З 7
{14}
16 км 10/10 1350 м +12.2 +3.9 57 +9 +9 997.3 996.9 +11.1 +14.4
З 7 16 км 10/10 1410 м +11.7 +3.9 59 +9 +9 997.0 996.6
З 9
{13}
16 км 8/8 1470 м
[средняя]
+11.7 +4.4 61 +8 +8 996.6 996.3
З 9
{13}
16 км 8/8 1650 м
[средняя]
+11.1 +3.9 61 +7 +7 996.4 996.3
З 9 16 км 8/5 1650 м
[средняя]
+11.7 +2.8 54 +8 +8 997.0 996.6
З 11
{14}
16 км 8/8 1500 м
[средняя]
+11.1 +3.3 59 +7 +7 997.1 996.9
З 9 16 км 8/8 1440 м
[средняя]
+11.1 +2.8 57 +7 +7 997.8 997.6 +11.1 +12.2 29.0
З 10
{13}
16 км 8/8 1500 м +12.2 +2.8 53 +9 +9 998.1 998.0
З 10
{17}
16 км 10/10 1440 м +12.8 +2.2 48 +10 +10 998.5 998.3
З 13
{18}
16 км 8/8 1470 м +13.3 +2.2 47 +10 +10 998.4 998.3
З 13
{17}
16 км 5/5 1410 м +14.4 +2.2 44 +11 +11 998.2 998.0
З 14
{18}
16 км 5/5 1500 м
[средняя]
+15.0 +1.7 41 +12 +12 998.7 998.3
З 13
{17}
16 км 8/8 1650 м
[средняя]
+15.6 +2.2 40 +13 +13 999.2 999.0 +11.1 +15.6
З 9
{16}
16 км 8/8 1650 м +15.0 +1.7 41 +13 +13 999.7 999.3
З 10
{16}
16 км 8/8 1500 м +15.0 +2.2 42 +13 +13 1000.3 1000.0
З 11
{15}
16 км 10/10 1500 м +14.4 +2.2 44 +12 +12 1001.1 1000.7
З 11
{14}
16 км 10/10 1440 м +13.9 +2.8 47 +11 +11 1002.2 1002.0
З 9 16 км 10/10 1800 м +13.3 +2.8 49 +10 +10 1003.1 1003.0
З 9
{13}
16 км 8/8 1380 м +12.8 +2.8 51 +10 +10 1004.0 1003.7 +12.8 +15.6
З 8
{12}
16 км 8/8 1440 м +12.2 +3.3 54 +9 +9 1004.9 1004.7
З 8
{11}
16 км 5/5 1440 м +12.2 +3.3 54 +9 +9 1005.9 1005.7
З 7
{13}
16 км 2/2 1440 м
[средняя]
+11.7 +3.3 56 +9 +9 1006.4 1006.1
З 6 16 км 2/2 1500 м +11.1 +3.3 59 +8 +8 1006.8 1006.4
З 6 16 км 5/5 1140 м +11.1 +3.3 59 +8 +8 1007.3 1007.1
З 4 16 км 5/5 1200 м
[средняя]
+10.6 +3.3 61 +8 +8 1007.8 1007.4 +10.6 +12.8
З 4 16 км 2/2 1350 м +10.0 +2.8 61 +8 +8 1008.0 1007.8
Местоположение метеостанции Philadelphia International Airport: широта 39.8733 долгота -75.2268 высота над уровнем моря 2 м.
В архиве по умолчанию представлена погода в Филадельфии за последние 1-2 суток. Обновление информации о фактической погоде в базе происходит ежечасно! Архивные данные за месяц целиком и за предыдущие месяцы Вы можете получить, выбрав интересующий диапазон дат из раскрывающегося списка и нажав кнопку "Ввод!".
Внимание! Архив погоды МЕТАР в базе сайта по станциям, не включенным в климатический монитор, хранится не более 60 дней. Нет смысла пытаться выбрать более раннюю дату.
*Определитесь, кто Вы:
Внимание! Время в таблицах - всемирное. Для получения местного времени необходимо прибавить поправку, которая равна ч.
Смотрите также архив погоды в соседних городах и на ближайших метеорологических станциях:
Партнеры нашего сайта:      
Пояснения к столбцам:
  • Ветер - указаны скорость ветра в м/с - средняя за 10 мин, порывы в срок и между сроками (в фигурных скобках) и направление, откуда дует ветер: С - северный,
  • СВ - северо-восточный, В - восточный, ЮВ - юго-восточный, Ю - южный, ЮЗ - юго-западный, З - западный, СЗ - северо-западный.
  • Видимость - горизонтальная дальность видимости в метрах или километрах. При видимости от 1 до 10 км при отсутствии осадков обычно наблюдается дымка, при ухудшении видимости до 1 км и менее - туман. В сухую погоду видимость может ухудшаться дымом, пылью или мглою.
  • Явления - указаны атмосферные явления, наблюдавшиеся в срок или в последний час перед сроком; фигурными скобками обозначены явления, наблюдавшиеся между сроками (за 1-3 часа до срока); квадратными скобками обозначены град или гололедные отложения с указанием их диаметра в мм.
  • Облачность - указаны через наклонную черту общая и нижняя облачность в баллах и высота нижней границы облаков в метрах; квадратными скобками обозначены формы облаков: Ci - перистые, Cs - перисто-слоистые, Cc - перисто-кучевые, Ac - высококучевые, As - высокослоистые, Sc - слоисто-кучевые, Ns - слоисто-дождевые, Cu - кучевые, Cb - кучево-дождевые. Подробнее классификацию облаков см. в Атласе облаков (PDF).
  • T - Температура воздуха - температура, измеренная на высоте 2 м над землей.
  • Td - Температура точки росы - температура, при понижении до которой содержащийся в воздухе водяной пар достигнет насыщения.
  • f - Относительная влажность воздуха - влажноcть воздуха, измеренная на высоте 2 м над землей.
  • Te - Эффективная температура - температура, которую ощущает одетый по сезону человек в тени. Характеристика душности погоды. При расчете учитывается влияние влажности воздуха и скорости ветра на теплоощущения человека.
  • Tes - Эффективная температура на солнце - температура, которую ощущает человек, с поправкой на солнечный нагрев. Характеристика знойности погоды. Зависит от высоты солнца над горизонтом, облачности и скорости ветра. Ночью, в пасмурную погоду, а также при ветре 12 м/с и более поправка равна нулю.
  • P - Атмосферное давление - приведенное к уровню моря атмосферное давление.
  • Po - Атмосферное давление - измеренное на уровне метеостанции атмосферное давление.
  • Tmin - Минимальная температура - минимум температуры воздуха на высоте 2 м над землей.
  • Tmax - Максимальная температура - максимум температуры воздуха на высоте 2 м над землей.
  • R - Количество осадков - Количество выпавших осадков за период времени, мм. При наведении курсора мыши на число - период времени, за который выпало указанное количество осадков.
  • R24 - Количество осадков - Количество выпавших осадков за 24 часа, мм.
  • S - Снежный покров - Высота снежного покрова, см. При наведении курсора мыши на число - состояние снежного покрова и степень покрытия местности в баллах.